Terminal Aerodrome Forecast
Issued by NWS

Home | Current Version | Previous Version | Graphics & Text | Print | Product List | Glossary On
Versions: 1 2 3 4 5 6 7 8 9 10 11 12 13 14 15 16 17 18 19 20 21
087
FTUS43 KBIS 112239 AAA
TAFMOT
TAF AMD
KMOT 112239Z 1123/1218 34008KT P6SM BKN035
     FM121200 32009KT P6SM SCT140=

USA.gov is the U.S. government's official web portal to all federal, state and local government web resources and services.